User: anonymous   Login
Location: Unspecified
(0.0000°N, 0.0000°E)
Time: 17:12:52
(UTC+00:00)
Language:

METEOSAT 11 (MSG 4) - Orbit

View from above orbital plane
View from above orbital plane
View from above satellite
View from above satellite

Ground track
Ground track

The orbit data is extracted from the following two-line orbital elements,

1 40732U 15034A   21336.72807788  .00000011  00000-0  00000-0 0  9993
2 40732   0.4865 108.4334 0000461  21.1532 203.9287  1.00273011 23404
Epoch (UTC): 02 December 2021 17:28:25
Eccentricity: 0.0000461
inclination: 0.4865°
perigee height: 35784 km
apogee height: 35788 km
right ascension of ascending node: 108.4334°
argument of perigee: 21.1532°
revolutions per day: 1.00273011
mean anomaly at epoch: 203.9287°
orbit number at epoch: 2340

The dashed part of the orbit path shows where the satellite is in the earth's shadow,  

DLR